owner,sensor,date,latitude,longitude,vertical_datum,sea_water_practical_salinity,qcFlag 
TABS,ioos:station:wmo:42050:1,2012-05-01T00:00:00Z,28.8425,-94.2433,2.0,31.9004,11111222 
TABS,ioos:station:wmo:42050:1,2012-05-01T00:30:00Z,28.8425,-94.2433,2.0,32.036,11111222 
TABS,ioos:station:wmo:42050:1,2012-05-01T01:00:00Z,28.8425,-94.2433,2.0,32.4752,11111222 
TABS,ioos:station:wmo:42050:1,2012-05-01T01:30:00Z,28.8425,-94.2433,2.0,32.8659,11111222 
TABS,ioos:station:wmo:42050:1,2012-05-01T02:00:00Z,28.8425,-94.2433,2.0,33.0252,11111222 
TABS,ioos:station:wmo:42050:1,2012-05-01T02:30:00Z,28.8425,-94.2433,2.0,33.1618,11111222 
TABS,ioos:station:wmo:42050:1,2012-05-01T03:00:00Z,28.8425,-94.2433,2.0,33.3545,11111222 
TABS,ioos:station:wmo:42050:1,2012-05-01T03:30:00Z,28.8425,-94.2433,2.0,33.4354,11111222 
TABS,ioos:station:wmo:42050:1,2012-05-01T04:00:00Z,28.8425,-94.2433,2.0,33.4875,11111222 
TABS,ioos:station:wmo:42050:1,2012-05-01T04:30:00Z,28.8425,-94.2433,2.0,33.5855,11111222 
TABS,ioos:station:wmo:42050:1,2012-05-01T05:00:00Z,28.8425,-94.2433,2.0,33.741,11111222 
TABS,ioos:station:wmo:42050:1,2012-05-01T05:30:00Z,28.8425,-94.2433,2.0,33.8676,11111222 
TABS,ioos:station:wmo:42050:1,2012-05-01T08:00:00Z,28.8425,-94.2433,2.0,34.1243,11111222 
TABS,ioos:station:wmo:42050:1,2012-05-01T08:30:00Z,28.8425,-94.2433,2.0,34.0872,11111222 
TABS,ioos:station:wmo:42050:1,2012-05-01T09:00:00Z,28.8425,-94.2433,2.0,34.0398,11111222 
TABS,ioos:station:wmo:42050:1,2012-05-01T09:30:00Z,28.8425,-94.2433,2.0,34.0317,11111222 
TABS,ioos:station:wmo:42050:1,2012-05-01T10:00:00Z,28.8425,-94.2433,2.0,34.0202,11111222 
TABS,ioos:station:wmo:42050:1,2012-05-01T10:30:00Z,28.8425,-94.2433,2.0,33.9999,11111222 
TABS,ioos:station:wmo:42050:1,2012-05-01T11:00:00Z,28.8425,-94.2433,2.0,33.9972,11111222 
TABS,ioos:station:wmo:42050:1,2012-05-01T11:30:00Z,28.8425,-94.2433,2.0,34.0244,11111222 
TABS,ioos:station:wmo:42050:1,2012-05-01T12:00:00Z,28.8425,-94.2433,2.0,34.0279,11111222 
TABS,ioos:station:wmo:42050:1,2012-05-01T12:30:00Z,28.8425,-94.2433,2.0,34.0403,11111222 
TABS,ioos:station:wmo:42050:1,2012-05-01T13:00:00Z,28.8425,-94.2433,2.0,34.0471,11111222 
TABS,ioos:station:wmo:42050:1,2012-05-01T13:30:00Z,28.8425,-94.2433,2.0,34.0537,11111222 
TABS,ioos:station:wmo:42050:1,2012-05-01T14:00:00Z,28.8425,-94.2433,2.0,34.0532,11111222 
TABS,ioos:station:wmo:42050:1,2012-05-01T14:30:00Z,28.8425,-94.2433,2.0,34.0597,11111222 
TABS,ioos:station:wmo:42050:1,2012-05-01T15:00:00Z,28.8425,-94.2433,2.0,34.0729,11111222 
TABS,ioos:station:wmo:42050:1,2012-05-01T15:30:00Z,28.8425,-94.2433,2.0,34.0939,11111222 
TABS,ioos:station:wmo:42050:1,2012-05-01T16:00:00Z,28.8425,-94.2433,2.0,34.1133,11111222 
TABS,ioos:station:wmo:42050:1,2012-05-01T16:30:00Z,28.8425,-94.2433,2.0,34.1169,11111222 
TABS,ioos:station:wmo:42050:1,2012-05-01T17:00:00Z,28.8425,-94.2433,2.0,34.0746,11111222 
TABS,ioos:station:wmo:42050:1,2012-05-01T17:30:00Z,28.8425,-94.2433,2.0,34.0295,11111222 
TABS,ioos:station:wmo:42050:1,2012-05-01T18:00:00Z,28.8425,-94.2433,2.0,33.9884,11111222 
TABS,ioos:station:wmo:42050:1,2012-05-01T18:30:00Z,28.8425,-94.2433,2.0,33.9653,11111222 
TABS,ioos:station:wmo:42050:1,2012-05-01T19:00:00Z,28.8425,-94.2433,2.0,33.9522,11111222 
TABS,ioos:station:wmo:42050:1,2012-05-01T19:30:00Z,28.8425,-94.2433,2.0,33.9387,11111222 
TABS,ioos:station:wmo:42050:1,2012-05-01T20:00:00Z,28.8425,-94.2433,2.0,33.925,11111222 
TABS,ioos:station:wmo:42050:1,2012-05-01T20:30:00Z,28.8425,-94.2433,2.0,33.9044,11111222 
TABS,ioos:station:wmo:42050:1,2012-05-01T21:00:00Z,28.8425,-94.2433,2.0,33.8753,11111222 
TABS,ioos:station:wmo:42050:1,2012-05-01T21:30:00Z,28.8425,-94.2433,2.0,33.8928,11111222 
TABS,ioos:station:wmo:42050:1,2012-05-01T22:00:00Z,28.8425,-94.2433,2.0,33.8718,11111222 
TABS,ioos:station:wmo:42050:1,2012-05-01T22:30:00Z,28.8425,-94.2433,2.0,33.8598,11111222 
TABS,ioos:station:wmo:42050:1,2012-05-01T23:00:00Z,28.8425,-94.2433,2.0,33.8588,11111222 
TABS,ioos:station:wmo:42050:1,2012-05-01T23:30:00Z,28.8425,-94.2433,2.0,33.8745,11111222 
TABS,ioos:station:wmo:42050:1,2012-05-02T00:00:00Z,28.8425,-94.2433,2.0,33.8835,11111222 
TABS,ioos:station:wmo:42050:1,2012-05-02T00:30:00Z,28.8425,-94.2433,2.0,33.8858,11111222 
TABS,ioos:station:wmo:42050:1,2012-05-02T01:00:00Z,28.8425,-94.2433,2.0,33.8825,11111222 
TABS,ioos:station:wmo:42050:1,2012-05-02T01:30:00Z,28.8425,-94.2433,2.0,33.9183,11111222 
TABS,ioos:station:wmo:42050:1,2012-05-02T02:00:00Z,28.8425,-94.2433,2.0,33.9099,11111222 
TABS,ioos:station:wmo:42050:1,2012-05-02T02:30:00Z,28.8425,-94.2433,2.0,33.9191,11111222 
TABS,ioos:station:wmo:42050:1,2012-05-02T03:00:00Z,28.8425,-94.2433,2.0,33.9106,11111222 
TABS,ioos:station:wmo:42050:1,2012-05-02T03:30:00Z,28.8425,-94.2433,2.0,33.8966,11111222 
TABS,ioos:station:wmo:42050:1,2012-05-02T04:00:00Z,28.8425,-94.2433,2.0,33.918,11111222 
TABS,ioos:station:wmo:42050:1,2012-05-02T04:30:00Z,28.8425,-94.2433,2.0,33.9215,11111222 
TABS,ioos:station:wmo:42050:1,2012-05-02T05:00:00Z,28.8425,-94.2433,2.0,33.9073,11111222 
TABS,ioos:station:wmo:42050:1,2012-05-02T05:30:00Z,28.8425,-94.2433,2.0,33.9015,11111222 
TABS,ioos:station:wmo:42050:1,2012-05-02T06:00:00Z,28.8425,-94.2433,2.0,33.8998,11111222 
TABS,ioos:station:wmo:42050:1,2012-05-02T06:30:00Z,28.8425,-94.2433,2.0,33.8623,11111222 
TABS,ioos:station:wmo:42050:1,2012-05-02T07:00:00Z,28.8425,-94.2433,2.0,33.8584,11111222 
TABS,ioos:station:wmo:42050:1,2012-05-02T07:30:00Z,28.8425,-94.2433,2.0,33.8574,11111222 
TABS,ioos:station:wmo:42050:1,2012-05-02T08:00:00Z,28.8425,-94.2433,2.0,33.8576,11111222 
TABS,ioos:station:wmo:42050:1,2012-05-02T08:30:00Z,28.8425,-94.2433,2.0,33.8548,11111222 
TABS,ioos:station:wmo:42050:1,2012-05-02T09:00:00Z,28.8425,-94.2433,2.0,33.8516,11111222 
TABS,ioos:station:wmo:42050:1,2012-05-02T09:30:00Z,28.8425,-94.2433,2.0,33.8519,11111222 
TABS,ioos:station:wmo:42050:1,2012-05-02T10:00:00Z,28.8425,-94.2433,2.0,33.8568,11111222 
TABS,ioos:station:wmo:42050:1,2012-05-02T10:30:00Z,28.8425,-94.2433,2.0,33.8591,11111222 
TABS,ioos:station:wmo:42050:1,2012-05-02T11:00:00Z,28.8425,-94.2433,2.0,33.8512,11111222 
TABS,ioos:station:wmo:42050:1,2012-05-02T11:30:00Z,28.8425,-94.2433,2.0,33.8562,11111222 
TABS,ioos:station:wmo:42050:1,2012-05-02T12:00:00Z,28.8425,-94.2433,2.0,33.8534,11111222 
TABS,ioos:station:wmo:42050:1,2012-05-02T12:30:00Z,28.8425,-94.2433,2.0,33.8524,11111222 
TABS,ioos:station:wmo:42050:1,2012-05-02T13:00:00Z,28.8425,-94.2433,2.0,33.8499,11111222 
TABS,ioos:station:wmo:42050:1,2012-05-02T13:30:00Z,28.8425,-94.2433,2.0,33.8474,11111222 
TABS,ioos:station:wmo:42050:1,2012-05-02T14:00:00Z,28.8425,-94.2433,2.0,33.8498,11111222 
TABS,ioos:station:wmo:42050:1,2012-05-02T14:30:00Z,28.8425,-94.2433,2.0,33.8065,11111222 
TABS,ioos:station:wmo:42050:1,2012-05-02T15:00:00Z,28.8425,-94.2433,2.0,33.7956,11111222 
TABS,ioos:station:wmo:42050:1,2012-05-02T15:30:00Z,28.8425,-94.2433,2.0,33.8029,11111222 
TABS,ioos:station:wmo:42050:1,2012-05-02T16:00:00Z,28.8425,-94.2433,2.0,33.8,11111222 
TABS,ioos:station:wmo:42050:1,2012-05-02T16:30:00Z,28.8425,-94.2433,2.0,33.8064,11111222 
TABS,ioos:station:wmo:42050:1,2012-05-02T17:00:00Z,28.8425,-94.2433,2.0,33.8262,11111222 
TABS,ioos:station:wmo:42050:1,2012-05-02T17:30:00Z,28.8425,-94.2433,2.0,33.8381,11111222 
TABS,ioos:station:wmo:42050:1,2012-05-02T18:00:00Z,28.8425,-94.2433,2.0,33.8461,11111222 
TABS,ioos:station:wmo:42050:1,2012-05-02T18:30:00Z,28.8425,-94.2433,2.0,33.8387,11111222 
TABS,ioos:station:wmo:42050:1,2012-05-02T19:00:00Z,28.8425,-94.2433,2.0,33.8318,11111222 
TABS,ioos:station:wmo:42050:1,2012-05-02T19:30:00Z,28.8425,-94.2433,2.0,33.8048,11111222 
TABS,ioos:station:wmo:42050:1,2012-05-02T20:00:00Z,28.8425,-94.2433,2.0,33.8516,11111222 
TABS,ioos:station:wmo:42050:1,2012-05-02T20:30:00Z,28.8425,-94.2433,2.0,33.5941,11111222 
TABS,ioos:station:wmo:42050:1,2012-05-02T21:00:00Z,28.8425,-94.2433,2.0,33.7892,11111222 
TABS,ioos:station:wmo:42050:1,2012-05-02T21:30:00Z,28.8425,-94.2433,2.0,33.736,11111222 
TABS,ioos:station:wmo:42050:1,2012-05-02T22:00:00Z,28.8425,-94.2433,2.0,33.676,11111222 
TABS,ioos:station:wmo:42050:1,2012-05-02T22:30:00Z,28.8425,-94.2433,2.0,33.7054,11111222 
TABS,ioos:station:wmo:42050:1,2012-05-02T23:00:00Z,28.8425,-94.2433,2.0,33.692,11111222 
TABS,ioos:station:wmo:42050:1,2012-05-02T23:30:00Z,28.8425,-94.2433,2.0,33.6653,11111222 
TABS,ioos:station:wmo:42050:1,2012-05-03T00:00:00Z,28.8425,-94.2433,2.0,33.6295,11111222 
TABS,ioos:station:wmo:42050:1,2012-05-03T00:30:00Z,28.8425,-94.2433,2.0,33.6152,11111222 
TABS,ioos:station:wmo:42050:1,2012-05-03T01:00:00Z,28.8425,-94.2433,2.0,33.6166,11111222 
TABS,ioos:station:wmo:42050:1,2012-05-03T01:30:00Z,28.8425,-94.2433,2.0,33.5962,11111222 
TABS,ioos:station:wmo:42050:1,2012-05-03T02:00:00Z,28.8425,-94.2433,2.0,33.5846,11111222 
TABS,ioos:station:wmo:42050:1,2012-05-03T02:30:00Z,28.8425,-94.2433,2.0,33.5704,11111222 
TABS,ioos:station:wmo:42050:1,2012-05-03T03:00:00Z,28.8425,-94.2433,2.0,33.5704,11111222 
TABS,ioos:station:wmo:42050:1,2012-05-03T03:30:00Z,28.8425,-94.2433,2.0,33.5748,11111222 
TABS,ioos:station:wmo:42050:1,2012-05-03T04:00:00Z,28.8425,-94.2433,2.0,33.5618,11111222 
TABS,ioos:station:wmo:42050:1,2012-05-03T04:30:00Z,28.8425,-94.2433,2.0,33.5706,11111222 
TABS,ioos:station:wmo:42050:1,2012-05-03T05:00:00Z,28.8425,-94.2433,2.0,33.5949,11111222 
TABS,ioos:station:wmo:42050:1,2012-05-03T05:30:00Z,28.8425,-94.2433,2.0,33.6106,11111222 
TABS,ioos:station:wmo:42050:1,2012-05-03T06:00:00Z,28.8425,-94.2433,2.0,33.6169,11111222 
TABS,ioos:station:wmo:42050:1,2012-05-03T06:30:00Z,28.8425,-94.2433,2.0,33.5953,11111222 
TABS,ioos:station:wmo:42050:1,2012-05-03T07:00:00Z,28.8425,-94.2433,2.0,33.5837,11111222 
TABS,ioos:station:wmo:42050:1,2012-05-03T07:30:00Z,28.8425,-94.2433,2.0,33.5511,11111222 
TABS,ioos:station:wmo:42050:1,2012-05-03T08:00:00Z,28.8425,-94.2433,2.0,33.5224,11111222 
TABS,ioos:station:wmo:42050:1,2012-05-03T08:30:00Z,28.8425,-94.2433,2.0,33.4927,11111222 
TABS,ioos:station:wmo:42050:1,2012-05-03T09:00:00Z,28.8425,-94.2433,2.0,33.427,11111222 
TABS,ioos:station:wmo:42050:1,2012-05-03T09:30:00Z,28.8425,-94.2433,2.0,33.3667,11111222 
TABS,ioos:station:wmo:42050:1,2012-05-03T10:00:00Z,28.8425,-94.2433,2.0,33.3428,11111222 
TABS,ioos:station:wmo:42050:1,2012-05-03T10:30:00Z,28.8425,-94.2433,2.0,33.3161,11111222 
TABS,ioos:station:wmo:42050:1,2012-05-03T11:00:00Z,28.8425,-94.2433,2.0,33.3164,11111222 
TABS,ioos:station:wmo:42050:1,2012-05-03T11:30:00Z,28.8425,-94.2433,2.0,33.3062,11111222 
TABS,ioos:station:wmo:42050:1,2012-05-03T12:00:00Z,28.8425,-94.2433,2.0,33.3028,11111222 
TABS,ioos:station:wmo:42050:1,2012-05-03T12:30:00Z,28.8425,-94.2433,2.0,33.2901,11111222 
TABS,ioos:station:wmo:42050:1,2012-05-03T13:00:00Z,28.8425,-94.2433,2.0,33.2882,11111222 
TABS,ioos:station:wmo:42050:1,2012-05-03T13:30:00Z,28.8425,-94.2433,2.0,33.2831,11111222 
TABS,ioos:station:wmo:42050:1,2012-05-03T14:00:00Z,28.8425,-94.2433,2.0,33.2783,11111222 
TABS,ioos:station:wmo:42050:1,2012-05-03T14:30:00Z,28.8425,-94.2433,2.0,33.2861,11111222 
TABS,ioos:station:wmo:42050:1,2012-05-03T15:00:00Z,28.8425,-94.2433,2.0,33.2824,11111222 
TABS,ioos:station:wmo:42050:1,2012-05-03T15:30:00Z,28.8425,-94.2433,2.0,33.2743,11111222 
TABS,ioos:station:wmo:42050:1,2012-05-03T16:00:00Z,28.8425,-94.2433,2.0,33.2914,11111222 
TABS,ioos:station:wmo:42050:1,2012-05-03T16:30:00Z,28.8425,-94.2433,2.0,33.2849,11111222 
TABS,ioos:station:wmo:42050:1,2012-05-03T17:00:00Z,28.8425,-94.2433,2.0,33.2805,11111222 
TABS,ioos:station:wmo:42050:1,2012-05-03T17:30:00Z,28.8425,-94.2433,2.0,33.282,11111222 
TABS,ioos:station:wmo:42050:1,2012-05-03T18:00:00Z,28.8425,-94.2433,2.0,33.2906,11111222 
TABS,ioos:station:wmo:42050:1,2012-05-03T18:30:00Z,28.8425,-94.2433,2.0,33.245,11111222 
TABS,ioos:station:wmo:42050:1,2012-05-03T19:00:00Z,28.8425,-94.2433,2.0,33.2152,11111222 
TABS,ioos:station:wmo:42050:1,2012-05-03T19:30:00Z,28.8425,-94.2433,2.0,32.8483,11111222 
TABS,ioos:station:wmo:42050:1,2012-05-03T20:00:00Z,28.8425,-94.2433,2.0,32.8022,11111222 
TABS,ioos:station:wmo:42050:1,2012-05-03T20:30:00Z,28.8425,-94.2433,2.0,32.9062,11111222 
TABS,ioos:station:wmo:42050:1,2012-05-03T21:00:00Z,28.8425,-94.2433,2.0,32.7605,11111222 
TABS,ioos:station:wmo:42050:1,2012-05-03T21:30:00Z,28.8425,-94.2433,2.0,32.9074,11111222 
TABS,ioos:station:wmo:42050:1,2012-05-03T22:00:00Z,28.8425,-94.2433,2.0,32.8085,11111222 
TABS,ioos:station:wmo:42050:1,2012-05-03T22:30:00Z,28.8425,-94.2433,2.0,33.0181,11111222 
TABS,ioos:station:wmo:42050:1,2012-05-03T23:00:00Z,28.8425,-94.2433,2.0,33.5031,11111222 
TABS,ioos:station:wmo:42050:1,2012-05-03T23:30:00Z,28.8425,-94.2433,2.0,33.7677,11111222 
TABS,ioos:station:wmo:42050:1,2012-05-04T00:00:00Z,28.8425,-94.2433,2.0,33.7279,11111222 
TABS,ioos:station:wmo:42050:1,2012-05-04T00:30:00Z,28.8425,-94.2433,2.0,33.7175,11111222 
TABS,ioos:station:wmo:42050:1,2012-05-04T01:00:00Z,28.8425,-94.2433,2.0,33.7494,11111222 
TABS,ioos:station:wmo:42050:1,2012-05-04T01:30:00Z,28.8425,-94.2433,2.0,33.8462,11111222 
TABS,ioos:station:wmo:42050:1,2012-05-04T02:00:00Z,28.8425,-94.2433,2.0,33.9514,11111222 
TABS,ioos:station:wmo:42050:1,2012-05-04T02:30:00Z,28.8425,-94.2433,2.0,34.0513,11111222 
TABS,ioos:station:wmo:42050:1,2012-05-04T03:00:00Z,28.8425,-94.2433,2.0,34.1096,11111222 
TABS,ioos:station:wmo:42050:1,2012-05-04T03:30:00Z,28.8425,-94.2433,2.0,34.1848,11111222 
TABS,ioos:station:wmo:42050:1,2012-05-04T04:00:00Z,28.8425,-94.2433,2.0,34.2787,11111222 
TABS,ioos:station:wmo:42050:1,2012-05-04T04:30:00Z,28.8425,-94.2433,2.0,34.3553,11111222 
TABS,ioos:station:wmo:42050:1,2012-05-04T05:00:00Z,28.8425,-94.2433,2.0,34.4254,11111222 
TABS,ioos:station:wmo:42050:1,2012-05-04T05:30:00Z,28.8425,-94.2433,2.0,34.4932,11111222 
TABS,ioos:station:wmo:42050:1,2012-05-04T06:00:00Z,28.8425,-94.2433,2.0,34.6707,11111222 
TABS,ioos:station:wmo:42050:1,2012-05-04T06:30:00Z,28.8425,-94.2433,2.0,34.7591,11111222 
TABS,ioos:station:wmo:42050:1,2012-05-04T07:00:00Z,28.8425,-94.2433,2.0,34.7207,11111222 
TABS,ioos:station:wmo:42050:1,2012-05-04T07:30:00Z,28.8425,-94.2433,2.0,34.698,11111222 
TABS,ioos:station:wmo:42050:1,2012-05-04T08:00:00Z,28.8425,-94.2433,2.0,34.6963,11111222 
TABS,ioos:station:wmo:42050:1,2012-05-04T08:30:00Z,28.8425,-94.2433,2.0,34.6933,11111222 
TABS,ioos:station:wmo:42050:1,2012-05-04T09:00:00Z,28.8425,-94.2433,2.0,34.6938,11111222 
TABS,ioos:station:wmo:42050:1,2012-05-04T09:30:00Z,28.8425,-94.2433,2.0,34.7036,11111222 
TABS,ioos:station:wmo:42050:1,2012-05-04T10:00:00Z,28.8425,-94.2433,2.0,34.7115,11111222 
TABS,ioos:station:wmo:42050:1,2012-05-04T10:30:00Z,28.8425,-94.2433,2.0,34.7056,11111222 
TABS,ioos:station:wmo:42050:1,2012-05-04T11:00:00Z,28.8425,-94.2433,2.0,34.7386,11111222 
TABS,ioos:station:wmo:42050:1,2012-05-04T11:30:00Z,28.8425,-94.2433,2.0,34.7839,11111222 
TABS,ioos:station:wmo:42050:1,2012-05-04T12:00:00Z,28.8425,-94.2433,2.0,34.8124,11111222 
TABS,ioos:station:wmo:42050:1,2012-05-04T12:30:00Z,28.8425,-94.2433,2.0,34.7797,11111222 
TABS,ioos:station:wmo:42050:1,2012-05-04T13:00:00Z,28.8425,-94.2433,2.0,34.75,11111222 
TABS,ioos:station:wmo:42050:1,2012-05-04T13:30:00Z,28.8425,-94.2433,2.0,34.723,11111222 
TABS,ioos:station:wmo:42050:1,2012-05-04T14:00:00Z,28.8425,-94.2433,2.0,34.7121,11111222 
TABS,ioos:station:wmo:42050:1,2012-05-04T14:30:00Z,28.8425,-94.2433,2.0,34.7178,11111222 
TABS,ioos:station:wmo:42050:1,2012-05-04T15:00:00Z,28.8425,-94.2433,2.0,34.6963,11111222 
TABS,ioos:station:wmo:42050:1,2012-05-04T15:30:00Z,28.8425,-94.2433,2.0,34.6822,11111222 
TABS,ioos:station:wmo:42050:1,2012-05-04T16:00:00Z,28.8425,-94.2433,2.0,34.6836,11111222 
TABS,ioos:station:wmo:42050:1,2012-05-04T16:30:00Z,28.8425,-94.2433,2.0,34.6603,11111222 
TABS,ioos:station:wmo:42050:1,2012-05-04T17:00:00Z,28.8425,-94.2433,2.0,34.6549,11111222 
TABS,ioos:station:wmo:42050:1,2012-05-04T17:30:00Z,28.8425,-94.2433,2.0,34.6356,11111222 
TABS,ioos:station:wmo:42050:1,2012-05-04T18:00:00Z,28.8425,-94.2433,2.0,34.6031,11111222 
TABS,ioos:station:wmo:42050:1,2012-05-04T18:30:00Z,28.8425,-94.2433,2.0,34.5937,11111222 
TABS,ioos:station:wmo:42050:1,2012-05-04T19:00:00Z,28.8425,-94.2433,2.0,34.5851,11111222 
TABS,ioos:station:wmo:42050:1,2012-05-04T19:30:00Z,28.8425,-94.2433,2.0,34.5501,11111222 
TABS,ioos:station:wmo:42050:1,2012-05-04T20:00:00Z,28.8425,-94.2433,2.0,33.7404,11111222 
TABS,ioos:station:wmo:42050:1,2012-05-04T20:30:00Z,28.8425,-94.2433,2.0,33.566,11111222 
TABS,ioos:station:wmo:42050:1,2012-05-04T21:00:00Z,28.8425,-94.2433,2.0,33.0882,11111222 
TABS,ioos:station:wmo:42050:1,2012-05-04T21:30:00Z,28.8425,-94.2433,2.0,32.9937,11111222 
TABS,ioos:station:wmo:42050:1,2012-05-04T22:00:00Z,28.8425,-94.2433,2.0,32.7487,11111222 
TABS,ioos:station:wmo:42050:1,2012-05-04T22:30:00Z,28.8425,-94.2433,2.0,32.5942,11111222 
TABS,ioos:station:wmo:42050:1,2012-05-04T23:00:00Z,28.8425,-94.2433,2.0,32.5578,11111222 
TABS,ioos:station:wmo:42050:1,2012-05-04T23:30:00Z,28.8425,-94.2433,2.0,32.4127,11111222 
TABS,ioos:station:wmo:42050:1,2012-05-05T00:00:00Z,28.8425,-94.2433,2.0,32.3083,11111222 
TABS,ioos:station:wmo:42050:1,2012-05-05T00:30:00Z,28.8425,-94.2433,2.0,32.2463,11111222 
TABS,ioos:station:wmo:42050:1,2012-05-05T01:00:00Z,28.8425,-94.2433,2.0,32.1319,11111222 
TABS,ioos:station:wmo:42050:1,2012-05-05T01:30:00Z,28.8425,-94.2433,2.0,32.1263,11111222 
TABS,ioos:station:wmo:42050:1,2012-05-05T02:00:00Z,28.8425,-94.2433,2.0,32.0866,11111222 
TABS,ioos:station:wmo:42050:1,2012-05-05T02:30:00Z,28.8425,-94.2433,2.0,32.0888,11111222 
TABS,ioos:station:wmo:42050:1,2012-05-05T03:00:00Z,28.8425,-94.2433,2.0,32.0797,11111222 
TABS,ioos:station:wmo:42050:1,2012-05-05T03:30:00Z,28.8425,-94.2433,2.0,32.0966,11111222 
TABS,ioos:station:wmo:42050:1,2012-05-05T04:00:00Z,28.8425,-94.2433,2.0,32.0751,11111222 
TABS,ioos:station:wmo:42050:1,2012-05-05T04:30:00Z,28.8425,-94.2433,2.0,32.0558,11111222 
TABS,ioos:station:wmo:42050:1,2012-05-05T05:00:00Z,28.8425,-94.2433,2.0,32.0218,11111222 
TABS,ioos:station:wmo:42050:1,2012-05-05T05:30:00Z,28.8425,-94.2433,2.0,31.8784,11111222 
TABS,ioos:station:wmo:42050:1,2012-05-05T06:00:00Z,28.8425,-94.2433,2.0,31.8528,11111222 
TABS,ioos:station:wmo:42050:1,2012-05-05T06:30:00Z,28.8425,-94.2433,2.0,31.7632,11111222 
TABS,ioos:station:wmo:42050:1,2012-05-05T07:00:00Z,28.8425,-94.2433,2.0,31.702,11111222 
TABS,ioos:station:wmo:42050:1,2012-05-05T07:30:00Z,28.8425,-94.2433,2.0,31.7085,11111222 
TABS,ioos:station:wmo:42050:1,2012-05-05T08:00:00Z,28.8425,-94.2433,2.0,31.7205,11111222 
TABS,ioos:station:wmo:42050:1,2012-05-05T08:30:00Z,28.8425,-94.2433,2.0,31.857,11111222 
TABS,ioos:station:wmo:42050:1,2012-05-05T09:00:00Z,28.8425,-94.2433,2.0,31.72,11111222 
TABS,ioos:station:wmo:42050:1,2012-05-05T09:30:00Z,28.8425,-94.2433,2.0,31.6506,11111222 
TABS,ioos:station:wmo:42050:1,2012-05-05T10:00:00Z,28.8425,-94.2433,2.0,31.6524,11111222 
TABS,ioos:station:wmo:42050:1,2012-05-05T10:30:00Z,28.8425,-94.2433,2.0,31.6749,11111222 
TABS,ioos:station:wmo:42050:1,2012-05-05T11:00:00Z,28.8425,-94.2433,2.0,31.673,11111222 
TABS,ioos:station:wmo:42050:1,2012-05-05T11:30:00Z,28.8425,-94.2433,2.0,31.72,11111222 
TABS,ioos:station:wmo:42050:1,2012-05-05T12:00:00Z,28.8425,-94.2433,2.0,31.7557,11111222 
TABS,ioos:station:wmo:42050:1,2012-05-05T12:30:00Z,28.8425,-94.2433,2.0,31.7561,11111222 
TABS,ioos:station:wmo:42050:1,2012-05-05T13:00:00Z,28.8425,-94.2433,2.0,31.738,11111222 
TABS,ioos:station:wmo:42050:1,2012-05-05T13:30:00Z,28.8425,-94.2433,2.0,31.7437,11111222 
TABS,ioos:station:wmo:42050:1,2012-05-05T14:00:00Z,28.8425,-94.2433,2.0,31.7565,11111222 
TABS,ioos:station:wmo:42050:1,2012-05-05T14:30:00Z,28.8425,-94.2433,2.0,31.7516,11111222 
TABS,ioos:station:wmo:42050:1,2012-05-05T15:00:00Z,28.8425,-94.2433,2.0,31.7577,11111222 
TABS,ioos:station:wmo:42050:1,2012-05-05T15:30:00Z,28.8425,-94.2433,2.0,31.7764,11111222 
TABS,ioos:station:wmo:42050:1,2012-05-05T16:00:00Z,28.8425,-94.2433,2.0,31.8105,11111222 
TABS,ioos:station:wmo:42050:1,2012-05-05T16:30:00Z,28.8425,-94.2433,2.0,31.842,11111222 
TABS,ioos:station:wmo:42050:1,2012-05-05T17:00:00Z,28.8425,-94.2433,2.0,31.8521,11111222 
TABS,ioos:station:wmo:42050:1,2012-05-05T17:30:00Z,28.8425,-94.2433,2.0,31.8311,11111222 
TABS,ioos:station:wmo:42050:1,2012-05-05T18:00:00Z,28.8425,-94.2433,2.0,31.8041,11111222 
TABS,ioos:station:wmo:42050:1,2012-05-05T18:30:00Z,28.8425,-94.2433,2.0,31.8347,11111222 
TABS,ioos:station:wmo:42050:1,2012-05-05T19:00:00Z,28.8425,-94.2433,2.0,31.7582,11111222 
TABS,ioos:station:wmo:42050:1,2012-05-05T19:30:00Z,28.8425,-94.2433,2.0,31.6851,11111222 
TABS,ioos:station:wmo:42050:1,2012-05-05T20:00:00Z,28.8425,-94.2433,2.0,31.6439,11111222 
TABS,ioos:station:wmo:42050:1,2012-05-05T20:30:00Z,28.8425,-94.2433,2.0,31.6158,11111222 
TABS,ioos:station:wmo:42050:1,2012-05-05T21:00:00Z,28.8425,-94.2433,2.0,31.5954,11111222 
TABS,ioos:station:wmo:42050:1,2012-05-05T21:30:00Z,28.8425,-94.2433,2.0,31.5576,11111222 
TABS,ioos:station:wmo:42050:1,2012-05-05T22:00:00Z,28.8425,-94.2433,2.0,31.5088,11111222 
TABS,ioos:station:wmo:42050:1,2012-05-05T22:30:00Z,28.8425,-94.2433,2.0,31.4718,11111222 
TABS,ioos:station:wmo:42050:1,2012-05-06T00:00:00Z,28.8425,-94.2433,2.0,31.4203,11111222 
TABS,ioos:station:wmo:42050:1,2012-05-06T00:30:00Z,28.8425,-94.2433,2.0,31.4666,11111222 
TABS,ioos:station:wmo:42050:1,2012-05-06T01:00:00Z,28.8425,-94.2433,2.0,31.4913,11111222 
TABS,ioos:station:wmo:42050:1,2012-05-06T01:30:00Z,28.8425,-94.2433,2.0,31.5023,11111222 
TABS,ioos:station:wmo:42050:1,2012-05-06T02:00:00Z,28.8425,-94.2433,2.0,31.5235,11111222 
TABS,ioos:station:wmo:42050:1,2012-05-06T02:30:00Z,28.8425,-94.2433,2.0,31.568,11111222 
TABS,ioos:station:wmo:42050:1,2012-05-06T03:00:00Z,28.8425,-94.2433,2.0,31.5676,11111222 
TABS,ioos:station:wmo:42050:1,2012-05-06T03:30:00Z,28.8425,-94.2433,2.0,31.5736,11111222 
TABS,ioos:station:wmo:42050:1,2012-05-06T04:00:00Z,28.8425,-94.2433,2.0,31.5875,11111222 
TABS,ioos:station:wmo:42050:1,2012-05-06T04:30:00Z,28.8425,-94.2433,2.0,31.5952,11111222 
TABS,ioos:station:wmo:42050:1,2012-05-06T05:00:00Z,28.8425,-94.2433,2.0,31.6162,11111222 
TABS,ioos:station:wmo:42050:1,2012-05-06T05:30:00Z,28.8425,-94.2433,2.0,31.6232,11111222 
TABS,ioos:station:wmo:42050:1,2012-05-06T06:00:00Z,28.8425,-94.2433,2.0,31.6435,11111222 
TABS,ioos:station:wmo:42050:1,2012-05-06T06:30:00Z,28.8425,-94.2433,2.0,31.637,11111222 
TABS,ioos:station:wmo:42050:1,2012-05-06T07:00:00Z,28.8425,-94.2433,2.0,31.6374,11111222 
TABS,ioos:station:wmo:42050:1,2012-05-06T07:30:00Z,28.8425,-94.2433,2.0,31.6445,11111222 
TABS,ioos:station:wmo:42050:1,2012-05-06T08:00:00Z,28.8425,-94.2433,2.0,31.6453,11111222 
TABS,ioos:station:wmo:42050:1,2012-05-06T08:30:00Z,28.8425,-94.2433,2.0,31.6366,11111222 
TABS,ioos:station:wmo:42050:1,2012-05-06T09:00:00Z,28.8425,-94.2433,2.0,31.6332,11111222 
TABS,ioos:station:wmo:42050:1,2012-05-06T09:30:00Z,28.8425,-94.2433,2.0,31.6521,11111222 
TABS,ioos:station:wmo:42050:1,2012-05-06T10:00:00Z,28.8425,-94.2433,2.0,31.6737,11111222 
TABS,ioos:station:wmo:42050:1,2012-05-06T10:30:00Z,28.8425,-94.2433,2.0,31.6953,11111222 
TABS,ioos:station:wmo:42050:1,2012-05-06T11:00:00Z,28.8425,-94.2433,2.0,31.7106,11111222 
TABS,ioos:station:wmo:42050:1,2012-05-06T11:30:00Z,28.8425,-94.2433,2.0,31.7203,11111222 
TABS,ioos:station:wmo:42050:1,2012-05-06T12:00:00Z,28.8425,-94.2433,2.0,31.7211,11111222 
TABS,ioos:station:wmo:42050:1,2012-05-06T12:30:00Z,28.8425,-94.2433,2.0,31.7263,11111222 
TABS,ioos:station:wmo:42050:1,2012-05-06T13:00:00Z,28.8425,-94.2433,2.0,31.7287,11111222 
TABS,ioos:station:wmo:42050:1,2012-05-06T13:30:00Z,28.8425,-94.2433,2.0,31.7407,11111222 
TABS,ioos:station:wmo:42050:1,2012-05-06T14:00:00Z,28.8425,-94.2433,2.0,31.739,11111222 
TABS,ioos:station:wmo:42050:1,2012-05-06T14:30:00Z,28.8425,-94.2433,2.0,31.7444,11111222 
TABS,ioos:station:wmo:42050:1,2012-05-06T15:00:00Z,28.8425,-94.2433,2.0,31.7553,11111222 
TABS,ioos:station:wmo:42050:1,2012-05-06T15:30:00Z,28.8425,-94.2433,2.0,31.7596,11111222 